Language: 


Des rapports , des résumés tant et plus, au choix de chacun....


Données Historiques de Météogheer
Journalier Rapport pour Février 14, 2018 Unitée:  Impériale    Métrique   Les deux
Suivant Jour »
Journalier Hebdomadaire Mensuel Annuel Sur mesure
  Max: Min: Moyenne:
Température: 44.1 °F 33.3 °F 38.1 °F
Point de rosée: 37.4 °F 28.4 °F 33.4 °F
Humidité: 95% 69% 82%
Vent: 25.5mph 0mph 7.9mph
Rafales: 26.2mph - -
Vent- - South
Pression: 29.9 in 29.7 in -
Pluie: 0.08 in    
Historical Graphs
 
 
Données tabulaires pour Février 14, 2018
Heure Température Point de rosée Pression Vent Vent Rafales Humidité Pluie Taux (Horaire) Conditions
00:02 34.5 °F 28.4 °F 29.7 in Calm   8.7 mph 78% 0 in
00:07 34.5 °F 28.4 °F 29.7 in ESE 4.9 mph 8.1 mph 78% 0 in
00:12 34.5 °F 28.4 °F 29.7 in Calm   7.6 mph 78% 0 in
00:17 34.5 °F 28.4 °F 29.7 in Calm   6.5 mph 78% 0 in
00:22 34.5 °F 28.4 °F 29.7 in SE 5.6 mph 6.9 mph 78% 0 in
00:27 34.3 °F 28.4 °F 29.7 in SSE 3.8 mph 6.9 mph 78% 0 in
00:32 34.5 °F 28.4 °F 29.7 in SSE 0.9 mph 8.5 mph 77% 0 in
00:37 34.3 °F 28.4 °F 29.7 in South 0.9 mph 8.5 mph 78% 0 in
00:42 34.3 °F 28.4 °F 29.7 in SSE 3.1 mph 7.2 mph 77% 0 in
00:47 34.3 °F 28.4 °F 29.7 in SSE 4 mph 5.6 mph 77% 0 in
00:52 34.2 °F 28.4 °F 29.7 in SSE 6 mph 6.3 mph 77% 0 in
00:57 34.2 °F 28.4 °F 29.7 in SSE 2 mph 6.3 mph 77% 0 in
01:02 34.2 °F 28.4 °F 29.7 in South 6.3 mph 7.8 mph 77% 0 in
01:07 34.2 °F 28.4 °F 29.7 in ESE 6.3 mph 7.8 mph 77% 0 in
01:12 34.2 °F 28.4 °F 29.7 in South 6.3 mph 10.1 mph 77% 0 in
01:18 34.2 °F 28.4 °F 29.8 in SSE 5.6 mph 10.1 mph 77% 0 in
01:23 34.3 °F 28.4 °F 29.8 in Calm   12.3 mph 77% 0 in
01:28 34.2 °F 28.4 °F 29.8 in SSE 7.2 mph 12.3 mph 77% 0 in
01:33 34.2 °F 28.4 °F 29.8 in SSE 6.5 mph 10.7 mph 77% 0 in
01:38 34.2 °F 28.4 °F 29.8 in SSE 3.4 mph 10.7 mph 77% 0 in
01:43 34 °F 28.4 °F 29.8 in SSE 6 mph 10.1 mph 77% 0 in
01:48 34 °F 28.4 °F 29.7 in SSE 5.4 mph 8.7 mph 78% 0 in
01:53 34 °F 28.4 °F 29.7 in SSE 6.5 mph 10.1 mph 78% 0 in
01:58 34 °F 28.4 °F 29.7 in South 5.4 mph 11 mph 78% 0 in
02:03 34 °F 28.4 °F 29.8 in Calm   11 mph 78% 0 in
02:08 33.8 °F 28.4 °F 29.8 in South 5.4 mph 8.1 mph 79% 0 in
02:13 33.8 °F 28.4 °F 29.8 in SE 2 mph 8.1 mph 79% 0 in
02:18 33.8 °F 28.4 °F 29.8 in Calm   9.6 mph 79% 0 in
02:23 33.8 °F 28.4 °F 29.8 in Calm   9.6 mph 80% 0 in
02:28 33.8 °F 28.4 °F 29.8 in Calm   10.3 mph 80% 0 in
02:34 33.8 °F 28.4 °F 29.8 in South 5.4 mph 10.3 mph 81% 0 in
02:39 33.8 °F 30.2 °F 29.8 in South 5.8 mph 8.7 mph 82% 0 in
02:44 33.8 °F 30.2 °F 29.8 in Calm   8.7 mph 82% 0 in
02:49 33.8 °F 30.2 °F 29.8 in South 4.7 mph 7.8 mph 82% 0 in
02:54 33.6 °F 30.2 °F 29.8 in Calm   8.1 mph 83% 0 in
02:59 33.6 °F 30.2 °F 29.8 in SSE 9.6 mph 9.6 mph 83% 0 in
03:04 33.6 °F 30.2 °F 29.8 in South 5.8 mph 9.6 mph 84% 0 in
03:09 33.4 °F 30.2 °F 29.8 in Calm   6.3 mph 84% 0 in
03:14 33.4 °F 30.2 °F 29.8 in South 0.9 mph 7.4 mph 84% 0 in
03:19 33.4 °F 30.2 °F 29.8 in SSE 5.4 mph 7.8 mph 85% 0 in
03:24 33.6 °F 30.2 °F 29.8 in SSE 7.6 mph 8.7 mph 86% 0 in
03:29 33.6 °F 30.2 °F 29.8 in SE 3.1 mph 9.8 mph 86% 0 in
03:34 33.6 °F 30.2 °F 29.8 in SSE 4.7 mph 9.8 mph 87% 0 in
03:39 33.6 °F 30.2 °F 29.8 in SSE 6.3 mph 9.6 mph 87% 0 in
03:44 33.6 °F 30.2 °F 29.8 in SSE 5.6 mph 10.3 mph 87% 0 in
03:49 33.6 °F 30.2 °F 29.8 in SE 6.5 mph 10.3 mph 87% 0 in
03:54 33.6 °F 30.2 °F 29.8 in SSE 2.5 mph 9.6 mph 87% 0 in
03:59 33.6 °F 30.2 °F 29.8 in Calm   8.1 mph 87% 0 in
04:04 33.6 °F 30.2 °F 29.8 in South 3.8 mph 7.6 mph 86% 0 in
04:09 33.6 °F 30.2 °F 29.8 in SSE 6.5 mph 8.5 mph 86% 0 in
04:14 33.6 °F 30.2 °F 29.8 in South 6.3 mph 8.5 mph 86% 0 in
04:19 33.8 °F 30.2 °F 29.8 in SSE 2 mph 8.5 mph 86% 0 in
04:24 33.8 °F 30.2 °F 29.8 in South 6.3 mph 8.5 mph 86% 0 in
04:29 33.8 °F 30.2 °F 29.8 in South 3.4 mph 7.8 mph 86% 0 in
04:34 33.8 °F 30.2 °F 29.8 in South 4.9 mph 8.5 mph 85% 0 in
04:39 33.6 °F 30.2 °F 29.8 in SSE 6.9 mph 8.5 mph 86% 0 in
04:44 33.6 °F 30.2 °F 29.8 in SSE 5.8 mph 8.7 mph 86% 0 in
04:49 33.6 °F 30.2 °F 29.8 in Calm   8.7 mph 86% 0 in
04:54 33.6 °F 30.2 °F 29.8 in South 4.3 mph 8.5 mph 87% 0 in
04:59 33.6 °F 30.2 °F 29.8 in South 5.4 mph 7.2 mph 87% 0 in
05:04 33.8 °F 30.2 °F 29.8 in South 6 mph 7.4 mph 87% 0 in
05:09 33.8 °F 30.2 °F 29.8 in Calm   9.6 mph 87% 0 in
05:15 33.8 °F 30.2 °F 29.8 in South 2.5 mph 9.6 mph 87% 0 in
05:20 33.8 °F 30.2 °F 29.8 in Calm   7.8 mph 87% 0 in
05:25 33.6 °F 30.2 °F 29.8 in Calm   7.4 mph 87% 0 in
05:27 33.6 °F 30.2 °F 29.8 in SSE 4 mph 6.3 mph 87% 0 in
05:32 33.4 °F 30.2 °F 29.8 in Calm   10.7 mph 87% 0 in
05:37 33.4 °F 30.2 °F 29.8 in South 3.1 mph 10.7 mph 87% 0 in
05:42 33.3 °F 30.2 °F 29.8 in Calm   8.5 mph 87% 0 in
05:47 33.3 °F 30.2 °F 29.8 in SE 5.4 mph 6.5 mph 88% 0 in
05:52 33.3 °F 30.2 °F 29.8 in SSE 3.6 mph 7.6 mph 88% 0 in
05:57 33.3 °F 30.2 °F 29.8 in Calm   8.5 mph 89% 0 in
06:02 33.3 °F 30.2 °F 29.8 in SSE 5.8 mph 8.7 mph 89% 0 in
06:07 33.4 °F 32 °F 29.8 in SSE 3.4 mph 8.7 mph 89% 0 in
06:12 33.4 °F 32 °F 29.8 in SSE 5.6 mph 8.7 mph 89% 0 in
06:17 33.3 °F 30.2 °F 29.8 in South 5.4 mph 8.1 mph 89% 0 in
06:22 33.4 °F 30.2 °F 29.8 in SE 6.5 mph 12.3 mph 88% 0 in
06:27 33.4 °F 30.2 °F 29.8 in SSE 6.5 mph 12.3 mph 88% 0 in
06:33 33.3 °F 30.2 °F 29.8 in SE 6.3 mph 11 mph 88% 0 in
06:38 33.3 °F 30.2 °F 29.8 in SSE 7.4 mph 11.9 mph 88% 0 in
06:43 33.3 °F 30.2 °F 29.8 in South 2.2 mph 11.9 mph 88% 0 in
06:48 33.3 °F 30.2 °F 29.8 in South 5.4 mph 7.2 mph 88% 0 in
06:53 33.3 °F 30.2 °F 29.8 in South 4.3 mph 7.2 mph 89% 0 in
06:58 33.3 °F 30.2 °F 29.8 in SE 4.3 mph 5.6 mph 88% 0 in
07:03 33.3 °F 30.2 °F 29.8 in SSE 6.5 mph 6.5 mph 89% 0 in
07:08 33.3 °F 30.2 °F 29.8 in SSE 2 mph 6.9 mph 89% 0 in
07:13 33.4 °F 32 °F 29.8 in Calm   8.5 mph 89% 0 in
07:18 33.6 °F 32 °F 29.8 in SSE 3.4 mph 8.5 mph 90% 0 in
07:23 33.6 °F 32 °F 29.8 in SSE 5.8 mph 9.6 mph 90% 0 in
07:28 33.8 °F 32 °F 29.8 in SSE 6 mph 9.6 mph 90% 0 in
07:33 34 °F 32 °F 29.8 in Calm   8.5 mph 90% 0 in
07:38 34.3 °F 32 °F 29.8 in SSE 7.4 mph 8.5 mph 91% 0 in
07:43 34.3 °F 32 °F 29.8 in SSE 3.6 mph 7.8 mph 91% 0 in
07:48 34.5 °F 32 °F 29.8 in SSE 2.9 mph 14.8 mph 91% 0 in
07:53 34.5 °F 32 °F 29.8 in SSE 11.2 mph 14.8 mph 91% 0 in
07:58 34.5 °F 32 °F 29.8 in SSE 0.9 mph 11.2 mph 90% 0 in
08:03 34.7 °F 32 °F 29.8 in South 7.4 mph 8.7 mph 90% 0 in
08:08 34.7 °F 32 °F 29.8 in Calm   10.7 mph 90% 0 in
08:13 34.9 °F 32 °F 29.8 in South 3.4 mph 10.7 mph 90% 0 in
08:18 34.9 °F 32 °F 29.8 in South 5.8 mph 12.3 mph 90% 0 in
08:24 35.1 °F 33.8 °F 29.8 in South 10.1 mph 12.3 mph 91% 0 in
08:29 35.1 °F 33.8 °F 29.8 in SSE 7.8 mph 12.3 mph 91% 0 in
08:34 35.1 °F 33.8 °F 29.8 in South 6.5 mph 12.5 mph 91% 0 in
08:39 35.1 °F 33.8 °F 29.8 in South 5.4 mph 12.5 mph 91% 0 in
08:44 35.1 °F 33.8 °F 29.8 in South 12.5 mph 12.5 mph 91% 0 in
08:49 35.1 °F 33.8 °F 29.8 in South 7.6 mph 12.8 mph 92% 0 in
08:54 35.2 °F 33.8 °F 29.8 in SSE 7.6 mph 13 mph 92% 0 in
08:59 35.2 °F 33.8 °F 29.8 in South 6.5 mph 15.4 mph 92% 0 in
09:04 35.2 °F 33.8 °F 29.8 in South 4.3 mph 15.4 mph 92% 0 in
09:09 35.2 °F 33.8 °F 29.8 in SSE 1.6 mph 13.2 mph 92% 0 in
09:14 35.2 °F 33.8 °F 29.8 in South 6.3 mph 13.2 mph 92% 0 in
09:19 35.4 °F 33.8 °F 29.8 in SSE 5.6 mph 13 mph 92% 0 in
09:24 35.6 °F 33.8 °F 29.8 in South 9.6 mph 13.6 mph 91% 0 in
09:29 35.6 °F 33.8 °F 29.9 in South 11.9 mph 14.5 mph 91% 0 in
09:34 35.6 °F 33.8 °F 29.9 in South 6.5 mph 14.5 mph 90% 0 in
09:40 35.6 °F 33.8 °F 29.9 in SSW 7.8 mph 14.3 mph 90% 0 in
09:45 35.6 °F 33.8 °F 29.9 in SSW 12.1 mph 14.3 mph 90% 0 in
09:50 35.6 °F 33.8 °F 29.9 in SSE 7.6 mph 12.5 mph 91% 0 in
09:55 35.6 °F 33.8 °F 29.9 in SSW 8.7 mph 12.5 mph 91% 0 in
10:00 35.8 °F 33.8 °F 29.9 in South 10.7 mph 13.4 mph 91% 0 in
10:05 35.8 °F 33.8 °F 29.9 in SSE 6.5 mph 13.4 mph 91% 0 in
10:11 36 °F 33.8 °F 29.9 in SSW 7.2 mph 12.3 mph 91% 0 in
10:16 36.1 °F 33.8 °F 29.9 in SSW 8.1 mph 12.3 mph 91% 0 in
10:21 36.3 °F 33.8 °F 29.9 in South 6 mph 12.8 mph 91% 0 in
10:26 36.3 °F 33.8 °F 29.9 in SSW 8.5 mph 13.6 mph 91% 0 in
10:31 36.3 °F 33.8 °F 29.9 in SSE 9.8 mph 14.5 mph 91% 0 in
10:36 36.5 °F 35.6 °F 29.9 in South 12.1 mph 14.5 mph 91% 0 in
10:41 36.7 °F 35.6 °F 29.9 in SSW 7.4 mph 14.5 mph 91% 0 in
10:46 36.7 °F 35.6 °F 29.8 in South 8.7 mph 14.5 mph 91% 0 in
10:51 36.9 °F 35.6 °F 29.8 in South 8.7 mph 13.6 mph 91% 0 in
10:56 37.2 °F 35.6 °F 29.8 in SSE 8.7 mph 14.3 mph 90% 0 in
11:01 37.4 °F 35.6 °F 29.9 in SSE 8.1 mph 17.7 mph 89% 0 in
11:06 37.8 °F 35.6 °F 29.9 in SSE 7.6 mph 17.7 mph 88% 0 in
11:11 38.5 °F 35.6 °F 29.9 in SSW 10.1 mph 16.6 mph 88% 0 in
11:16 38.5 °F 35.6 °F 29.9 in SSW 6.9 mph 12.3 mph 87% 0 in
11:21 38.7 °F 35.6 °F 29.9 in South 10.1 mph 12.3 mph 87% 0 in
11:26 38.8 °F 35.6 °F 29.9 in South 6.3 mph 14.5 mph 86% 0 in
11:31 38.8 °F 35.6 °F 29.8 in South 6 mph 14.5 mph 85% 0 in
11:36 39.4 °F 35.6 °F 29.8 in SW 12.1 mph 13 mph 86% 0 in
11:41 39.6 °F 35.6 °F 29.8 in SSW 10.5 mph 13 mph 84% 0 in
11:46 39.9 °F 35.6 °F 29.9 in South 13 mph 13 mph 83% 0 in
11:51 40.3 °F 35.6 °F 29.9 in South 8.9 mph 13 mph 83% 0 in
11:56 40.6 °F 35.6 °F 29.9 in South 13.2 mph 13.2 mph 81% 0 in
12:02 41.2 °F 35.6 °F 29.9 in SSW 7.4 mph 13.2 mph 80% 0 in
12:06 41.4 °F 35.6 °F 29.9 in South 4.9 mph 12.3 mph 79% 0 in
12:12 41.9 °F 37.4 °F 29.9 in South 10.3 mph 12.3 mph 80% 0 in
12:17 42.1 °F 35.6 °F 29.8 in South 7.8 mph 11.4 mph 78% 0 in
12:22 42.4 °F 37.4 °F 29.8 in South 8.7 mph 11.4 mph 78% 0 in
12:27 42.8 °F 37.4 °F 29.8 in SSW 8.7 mph 11.2 mph 77% 0 in
12:32 42.8 °F 35.6 °F 29.8 in SSE 7.8 mph 12.8 mph 76% 0 in
12:37 43 °F 35.6 °F 29.8 in South 10.1 mph 12.8 mph 75% 0 in
12:42 43.3 °F 37.4 °F 29.8 in South 8.7 mph 12.8 mph 75% 0 in
12:47 43.2 °F 35.6 °F 29.9 in South 7.4 mph 12.8 mph 74% 0 in
12:52 43 °F 35.6 °F 29.9 in SSW 13.4 mph 13.4 mph 74% 0 in
12:57 43.3 °F 35.6 °F 29.9 in SSW 15.4 mph 16.3 mph 74% 0 in
13:02 43.3 °F 35.6 °F 29.9 in South 7.4 mph 16.3 mph 74% 0 in
13:07 43.7 °F 37.4 °F 29.9 in SSW 10.5 mph 15.4 mph 74% 0 in
13:12 43.3 °F 35.6 °F 29.9 in South 8.7 mph 15.2 mph 72% 0 in
13:17 43.2 °F 35.6 °F 29.9 in South 8.5 mph 15.2 mph 73% 0 in
13:22 43 °F 35.6 °F 29.9 in South 10.3 mph 17.2 mph 74% 0 in
13:27 42.8 °F 35.6 °F 29.9 in South 11.9 mph 17.2 mph 73% 0 in
13:32 43 °F 35.6 °F 29.9 in South 11 mph 16.6 mph 74% 0 in
13:37 42.8 °F 35.6 °F 29.9 in SSW 7.6 mph 16.6 mph 74% 0 in
13:42 42.8 °F 35.6 °F 29.9 in SSW 12.8 mph 15.2 mph 74% 0 in
13:47 43.2 °F 37.4 °F 29.9 in SSW 8.1 mph 12.8 mph 75% 0 in
13:52 43.3 °F 37.4 °F 29.9 in South 7.8 mph 15.9 mph 75% 0 in
13:57 43.2 °F 35.6 °F 29.9 in South 7.8 mph 15.9 mph 74% 0 in
14:02 43.3 °F 37.4 °F 29.9 in SSW 10.3 mph 13.9 mph 75% 0 in
14:07 43.5 °F 35.6 °F 29.9 in South 10.3 mph 15.4 mph 74% 0 in
14:12 43.7 °F 37.4 °F 29.9 in South 11 mph 15.4 mph 74% 0 in
14:17 44.1 °F 37.4 °F 29.8 in SSE 5.8 mph 15.2 mph 74% 0 in
14:22 43.5 °F 35.6 °F 29.8 in SSW 8.5 mph 15.2 mph 73% 0 in
14:27 43.5 °F 35.6 °F 29.8 in SSW 7.6 mph 14.1 mph 73% 0 in
14:32 43.5 °F 35.6 °F 29.8 in SSE 10.1 mph 14.3 mph 73% 0 in
14:37 43.3 °F 35.6 °F 29.8 in SSE 8.1 mph 15.2 mph 73% 0 in
14:42 43.3 °F 35.6 °F 29.8 in SSE 7.2 mph 15.2 mph 73% 0 in
14:47 43.3 °F 35.6 °F 29.8 in SSW 6 mph 13.2 mph 74% 0 in
14:52 43.3 °F 35.6 °F 29.8 in SSW 9.4 mph 14.3 mph 73% 0 in
14:57 43.3 °F 35.6 °F 29.8 in SSE 13 mph 15.4 mph 74% 0 in
15:02 43.3 °F 35.6 °F 29.8 in South 9.6 mph 15.4 mph 73% 0 in
15:07 43.3 °F 35.6 °F 29.8 in South 10.3 mph 15.2 mph 74% 0 in
15:12 43.2 °F 35.6 °F 29.8 in South 11 mph 19 mph 74% 0 in
15:17 43.2 °F 35.6 °F 29.8 in SSE 8.9 mph 19 mph 74% 0 in
15:22 43 °F 35.6 °F 29.8 in South 10.5 mph 15.4 mph 74% 0 in
15:27 43.2 °F 35.6 °F 29.8 in South 6.3 mph 15.4 mph 74% 0 in
15:32 43.2 °F 35.6 °F 29.8 in South 12.1 mph 14.8 mph 74% 0 in
15:37 43.2 °F 35.6 °F 29.8 in South 9.8 mph 14.8 mph 74% 0 in
15:42 43.3 °F 35.6 °F 29.8 in SSE 6.3 mph 15.4 mph 74% 0 in
15:47 43.3 °F 35.6 °F 29.8 in SSE 6.5 mph 15.4 mph 74% 0 in
15:52 43.3 °F 35.6 °F 29.8 in South 7.8 mph 15.4 mph 74% 0 in
15:57 43.3 °F 35.6 °F 29.8 in South 5.4 mph 17.2 mph 73% 0 in
16:02 43.2 °F 35.6 °F 29.8 in SSW 8.5 mph 17.2 mph 73% 0 in
16:07 43.3 °F 35.6 °F 29.8 in South 7.4 mph 15.4 mph 72% 0 in
16:12 43.3 °F 35.6 °F 29.8 in SSE 8.7 mph 15.4 mph 73% 0 in
16:17 43.3 °F 35.6 °F 29.8 in South 9.8 mph 14.5 mph 73% 0 in
16:22 43.3 °F 35.6 °F 29.8 in SSW 6 mph 13.9 mph 73% 0 in
16:27 43.2 °F 35.6 °F 29.8 in SSW 5.4 mph 10.5 mph 73% 0 in
16:32 43.2 °F 33.8 °F 29.8 in South 15.4 mph 15.4 mph 70% 0 in
16:37 43.2 °F 33.8 °F 29.8 in SSE 8.7 mph 15.9 mph 69% 0 in
16:42 43 °F 33.8 °F 29.8 in South 10.5 mph 15.9 mph 69% 0 in
16:47 43 °F 33.8 °F 29.8 in South 6 mph 15.4 mph 70% 0 in
16:53 42.8 °F 33.8 °F 29.8 in South 8.7 mph 14.5 mph 70% 0 in
16:58 42.8 °F 33.8 °F 29.8 in South 6.5 mph 16.6 mph 71% 0 in
17:03 42.6 °F 33.8 °F 29.8 in South 14.8 mph 17.4 mph 70% 0 in
17:08 42.6 °F 33.8 °F 29.8 in South 13.4 mph 17.4 mph 70% 0 in
17:13 42.4 °F 33.8 °F 29.8 in South 13.2 mph 23.5 mph 71% 0 in
17:18 42.4 °F 35.6 °F 29.8 in SSE 17 mph 23.5 mph 72% 0 in
17:23 42.3 °F 33.8 °F 29.8 in SSE 11.9 mph 18.8 mph 72% 0 in
17:28 42.3 °F 33.8 °F 29.8 in South 5.4 mph 16.1 mph 72% 0 in
17:33 42.1 °F 33.8 °F 29.8 in South 8.1 mph 14.8 mph 73% 0 in
17:38 42.1 °F 33.8 °F 29.8 in SSW 10.7 mph 15.2 mph 73% 0 in
17:43 41.9 °F 33.8 °F 29.8 in SSE 7.4 mph 15.2 mph 73% 0 in
17:48 42.1 °F 33.8 °F 29.8 in SSE 7.8 mph 17.7 mph 73% 0 in
17:53 41.9 °F 35.6 °F 29.8 in SSE 8.7 mph 17.7 mph 74% 0 in
17:58 41.9 °F 33.8 °F 29.8 in SSE 12.8 mph 15.4 mph 73% 0 in
18:03 41.7 °F 33.8 °F 29.8 in South 12.8 mph 15.4 mph 73% 0 in
18:08 41.7 °F 33.8 °F 29.8 in South 5.8 mph 18.1 mph 73% 0 in
18:13 41.7 °F 33.8 °F 29.8 in South 8.5 mph 21 mph 72% 0 in
18:18 41.7 °F 33.8 °F 29.8 in SSE 9.6 mph 21 mph 73% 0 in
18:23 41.7 °F 33.8 °F 29.8 in SSE 10.5 mph 17 mph 73% 0 in
18:28 41.5 °F 33.8 °F 29.8 in South 10.1 mph 17 mph 74% 0 in
18:33 41.5 °F 33.8 °F 29.8 in South 6 mph 17 mph 74% 0 in
18:38 41.5 °F 33.8 °F 29.8 in SE 11.2 mph 17 mph 74% 0 in
18:43 41.4 °F 33.8 °F 29.8 in SSW 10.1 mph 16.8 mph 75% 0 in
18:48 41.2 °F 33.8 °F 29.8 in South 10.5 mph 16.8 mph 75% 0 in
18:54 41.2 °F 33.8 °F 29.8 in SSW 5.8 mph 14.1 mph 75% 0 in
18:59 41.2 °F 33.8 °F 29.8 in South 12.1 mph 16.3 mph 75% 0 in
19:04 41.2 °F 33.8 °F 29.8 in South 8.7 mph 16.8 mph 75% 0 in
19:09 41.2 °F 33.8 °F 29.8 in SSE 8.1 mph 16.8 mph 76% 0 in
19:14 41 °F 33.8 °F 29.8 in SSW 6.3 mph 16.8 mph 76% 0 in
19:19 41 °F 33.8 °F 29.8 in South 18.6 mph 18.6 mph 76% 0 in
19:24 41 °F 33.8 °F 29.8 in SSE 12.8 mph 18.6 mph 76% 0 in
19:29 41 °F 33.8 °F 29.8 in South 8.7 mph 19.9 mph 76% 0 in
19:34 41 °F 33.8 °F 29.8 in SSW 17.2 mph 19.9 mph 76% 0 in
19:39 41 °F 35.6 °F 29.8 in South 12.3 mph 17.2 mph 77% 0 in
19:44 41 °F 35.6 °F 29.8 in South 19 mph 19 mph 77% 0 in
19:49 41 °F 35.6 °F 29.8 in SSW 12.3 mph 19 mph 78% 0 in
19:54 40.8 °F 35.6 °F 29.8 in South 13.4 mph 13.9 mph 79% 0 in
19:59 40.6 °F 35.6 °F 29.8 in South 10.7 mph 13.4 mph 80% 0 in
20:04 40.6 °F 35.6 °F 29.8 in SSW 6.5 mph 15.2 mph 81% 0 in
20:09 40.5 °F 35.6 °F 29.8 in South 7.8 mph 20.8 mph 82% 0 in
20:14 40.5 °F 35.6 °F 29.8 in South 9.2 mph 20.8 mph 83% 0 in
20:19 40.3 °F 35.6 °F 29.8 in SSE 16.1 mph 17 mph 84% 0 in
20:24 40.3 °F 35.6 °F 29.8 in SSW 9.8 mph 23 mph 84% 0 in
20:29 40.3 °F 35.6 °F 29.8 in South 10.5 mph 23 mph 83% 0 in
20:34 40.5 °F 35.6 °F 29.8 in SSW 7.2 mph 16.3 mph 83% 0 in
20:39 40.3 °F 35.6 °F 29.8 in South 8.7 mph 16.3 mph 84% 0 in
20:44 40.3 °F 35.6 °F 29.8 in South 9.8 mph 15.4 mph 84% 0 in
20:49 40.3 °F 35.6 °F 29.8 in SSW 15.4 mph 15.4 mph 84% 0 in
20:54 40.3 °F 35.6 °F 29.8 in South 17 mph 22.6 mph 84% 0 in
20:59 40.1 °F 37.4 °F 29.8 in SSW 10.1 mph 22.6 mph 85% 0.01 in
21:04 39.9 °F 35.6 °F 29.8 in SSE 13.2 mph 17.9 mph 85% 0.01 in
21:09 39.9 °F 35.6 °F 29.8 in SSW 9.6 mph 17.9 mph 86% 0.01 in
21:15 39.9 °F 35.6 °F 29.8 in SSW 13.4 mph 15.7 mph 86% 0.01 in
21:20 39.7 °F 35.6 °F 29.8 in South 15.2 mph 17.7 mph 86% 0.01 in
21:25 39.7 °F 37.4 °F 29.8 in SSE 13.9 mph 21.9 mph 87% 0.01 in
21:30 39.6 °F 37.4 °F 29.8 in SSW 8.5 mph 21.9 mph 87% 0.01 in
21:35 39.6 °F 37.4 °F 29.8 in South 10.1 mph 23.5 mph 87% 0.01 in
21:40 39.6 °F 37.4 °F 29.8 in SSE 17.7 mph 23.5 mph 88% 0.01 in
21:45 39.6 °F 37.4 °F 29.8 in South 8.5 mph 17.7 mph 88% 0.01 in
21:50 39.4 °F 35.6 °F 29.8 in South 8.1 mph 23.7 mph 88% 0.01 in
21:55 39.4 °F 35.6 °F 29.8 in SSW 8.7 mph 23.7 mph 88% 0.01 in
22:00 39.2 °F 37.4 °F 29.7 in SSW 14.5 mph 23.7 mph 89% 0 in
22:05 39.4 °F 37.4 °F 29.7 in South 14.5 mph 23.7 mph 89% 0 in
22:10 39.2 °F 37.4 °F 29.7 in South 13.9 mph 19.7 mph 89% 0 in
22:15 39.2 °F 37.4 °F 29.7 in South 25.5 mph 25.5 mph 90% 0 in
22:20 39.2 °F 37.4 °F 29.7 in SSW 11 mph 25.5 mph 90% 0.01 in
22:25 39.2 °F 37.4 °F 29.7 in West 17.9 mph 25.5 mph 90% 0.01 in
22:30 39.2 °F 37.4 °F 29.7 in South 12.1 mph 25.5 mph 90% 0.01 in
22:35 39.2 °F 37.4 °F 29.7 in SSE 12.3 mph 22.1 mph 91% 0.01 in
22:40 39.2 °F 37.4 °F 29.7 in SSW 13 mph 26.2 mph 91% 0.01 in
22:45 39.2 °F 37.4 °F 29.7 in South 9.2 mph 26.2 mph 91% 0.01 in
22:51 39 °F 37.4 °F 29.7 in SSE 15.4 mph 19.7 mph 92% 0.03 in
22:56 39.2 °F 37.4 °F 29.7 in South 15.4 mph 21.9 mph 92% 0.03 in
23:01 39.2 °F 37.4 °F 29.7 in South 19 mph 21.9 mph 92% 0.03 in
23:06 39.2 °F 37.4 °F 29.7 in SSE 13.6 mph 19 mph 92% 0.03 in
23:11 39.2 °F 37.4 °F 29.7 in SSW 10.7 mph 19.2 mph 92% 0.04 in
23:16 39.2 °F 37.4 °F 29.7 in South 10.7 mph 25.3 mph 92% 0.02 in
23:21 39.2 °F 37.4 °F 29.7 in SSW 12.5 mph 25.3 mph 93% 0.02 in
23:26 39.2 °F 37.4 °F 29.7 in SSE 10.1 mph 15.2 mph 93% 0.03 in
23:31 39.2 °F 37.4 °F 29.7 in SSE 14.8 mph 16.6 mph 93% 0.03 in
23:36 39.2 °F 37.4 °F 29.7 in SSE 10.3 mph 17.2 mph 93% 0.03 in
23:41 39.2 °F 37.4 °F 29.7 in SSW 13.2 mph 17.2 mph 94% 0.05 in
23:46 39.2 °F 37.4 °F 29.7 in South 10.7 mph 14.1 mph 94% 0.05 in
23:51 39.2 °F 37.4 °F 29.7 in South 13.2 mph 15.4 mph 94% 0.03 in
23:56 39 °F 37.4 °F 29.7 in SSE 4.9 mph 15.4 mph 95% 0.03 in
Données Historique de Météo Turbie

Mise a jour : 23/06/2018 11:51:14
Généré par Cumulus 1.9.4 (1099)